Regional Weather Roundup
Issued by NWS State College, PA

Home | Current Version | Previous Version | Text Only | Print | Product List | Glossary On
Versions: 1 2 3 4 5 6 7 8 9 10 11 12 13 14 15 16 17 18 19 20 21 22 23 24 25 26 27 28 29 30 31 32 33 34 35 36 37 38 39 40 41 42 43 44 45 46 47 48 49 50
000
ASUS41 KCTP 271203
RWRCTP

REGIONAL WEATHER ROUNDUP
NATIONAL WEATHER SERVICE STATE COLLEGE PA
800 AM EDT THU JUL 27 2017

Note: "fair" indicates few or no clouds below 12,000 feet with no
significant weather and/or obstructions to visibility.

* = STATION THAT DOES NOT REPORT PRECIPITATION /E.G. RAIN...SNOW...ETC/
    THUNDER OR FOG.

PAZ002>004-007>009-013>016-020>023-029>032-271300-
WESTERN PENNSYLVANIA

CITY           SKY/WX    TMP DP  RH WIND       PRES   REMARKS
ERIE           CLOUDY    69  62  78 S6        29.98S
MEADVILLE      CLOUDY    67  64  90 S3        30.02S
FRANKLIN*      CLOUDY    64  61  88 SE3       30.03S
NEW CASTLE     FAIR      65  65 100 CALM      30.02R
BEAVER COUNTY  SUNNY     64  64 100 CALM      30.02R FOG
BUTLER*        MOSUNNY   64  63  94 CALM      30.01S
PITTSBURGH INT CLOUDY    65  63  93 CALM      30.01R
PITTSBURGH     PTSUNNY   67  63  87 S3        30.00S FOG
INDIANA*       SUNNY     68  66  94 CALM      30.05S
LATROBE        SUNNY     64  64 100 CALM      30.02F
WASHINGTON CO* CLOUDY    64  63  94 CALM      30.01S
$$

PAZ004>006-010>012-017>019-024>028-033>037-041-042-045-046-049>053-271300-
CENTRAL PENNSYLVANIA

CITY           SKY/WX    TMP DP  RH WIND       PRES   REMARKS
BRADFORD       CLOUDY    62  62 100 SE3       30.05F
DUBOIS         CLOUDY    64  61  90 CALM      30.03F FOG
CLEARFIELD     CLOUDY    62  62 100 CALM      30.04F
JOHNSTOWN      MOSUNNY   67  63  87 S6        30.06S
ALTOONA        CLOUDY    66  65  96 CALM      30.05S
STATE COLLEGE  CLOUDY    64  63  94 CALM      30.04S
WILLIAMSPORT   CLOUDY    68  65  90 CALM      30.01F
SELINSGROVE    CLOUDY    70  67  90 CALM      30.03S
FT INDIANTOWN  CLOUDY    68  66  95 CALM      30.04S
CAPITAL CITY   CLOUDY    72  66  81 E5        30.03S
HARRISBURG     CLOUDY    71  68  90 SE3       30.02S
YORK           CLOUDY    72  69  90 SW6       30.03F
$$

PAZ038>040-043-044-047-048-054-055-060>062-067>071-271300-
EASTERN PENNSYLVANIA

CITY           SKY/WX    TMP DP  RH WIND       PRES   REMARKS
SCRANTON       CLOUDY    68  64  87 S5        30.04F
MOUNT POCONO   FOG       62  62 100 SW7       30.08S VSB 1/4
ALLENTOWN      CLOUDY    69  62  78 CALM      30.06S
QUAKERTOWN*    CLOUDY    66  63  88 S3        30.07S
READING        CLOUDY    69  66  90 CALM      30.04S
LANCASTER      CLOUDY    70  67  90 SE3       30.04S
COATESVILLE    PTSUNNY   68  66  94 CALM      30.07S
POTTSTOWN      CLOUDY    66  65  96 CALM      30.07S
BLUE BELL      CLOUDY    66  63  88 CALM      30.07S
DOYLESTOWN     CLOUDY    65  62  90 CALM      30.05F
WILLOW GROVE   NOT AVBL
NORTH PHILA    CLOUDY    69  63  81 SE5       30.07S
PHILADELPHIA   CLOUDY    70  64  81 S5        30.06R
$$



USA.gov is the U.S. government's official web portal to all federal, state and local government web resources and services.